Location: Artiguedieu
(43.5000°N, 0.5454°E)
Time: 09:48:58
(UTC+00:00)

Explorer 7 - Pass Details

Date: 03 August 2021
Orbit: 484 x 676 km, 50.3° (Epoch: 22 September)

Event Time Altitude Azimuth Distance (km) Brightness Sun altitude
Rises 08:43:08 0° 299° (WNW) 2,646 9.8 40.4°
Reaches altitude 10° 08:45:20 10° 304° (NW) 1,784 9.1 40.8°
Maximum altitude 08:49:18 51° 21° (NNE) 699 7.9 41.5°
Drops below altitude 10° 08:53:31 10° 99° (E) 1,894 10.7 42.2°
Sets 08:55:55 0° 104° (ESE) 2,829 11.3 42.7°
